TimeEST,TemperatureF,Dew PointF,Humidity,Sea Level PressureIn,VisibilityMPH,Wind Direction,Wind SpeedMPH,Gust SpeedMPH,PrecipitationIn,Events,Conditions,WindDirDegrees,DateUTC
12:53 AM,70.0,70.0,100,30.02,2.0,Calm,Calm,-,0.01,,Partly Cloudy,0,2012-12-09 05:53:00
1:01 AM,71.6,69.8,94,30.02,1.5,Calm,Calm,-,N/A,,Scattered Clouds,0,2012-12-09 06:01:00
1:07 AM,71.6,71.6,100,30.02,0.8,Calm,Calm,-,N/A,,Mostly Cloudy,0,2012-12-09 06:07:00
1:11 AM,69.8,69.8,100,30.02,1.0,Calm,Calm,-,N/A,,Scattered Clouds,0,2012-12-09 06:11:00
1:18 AM,69.8,69.8,100,30.02,0.8,Calm,Calm,-,N/A,,Mostly Cloudy,0,2012-12-09 06:18:00
1:44 AM,69.8,69.8,100,30.02,1.2,Calm,Calm,-,N/A,,Scattered Clouds,0,2012-12-09 06:44:00
1:53 AM,68.0,68.0,100,30.02,0.8,Calm,Calm,-,N/A,,Mist,0,2012-12-09 06:53:00
2:35 AM,66.2,66.2,100,30.01,0.2,Calm,Calm,-,N/A,Fog,Fog,0,2012-12-09 07:35:00
2:53 AM,68.0,68.0,100,30.01,0.2,Calm,Calm,-,N/A,Fog,Fog,0,2012-12-09 07:53:00
3:06 AM,68.0,68.0,100,30.01,0.8,Calm,Calm,-,N/A,,Mist,0,2012-12-09 08:06:00
3:14 AM,68.0,68.0,100,30.01,1.2,Calm,Calm,-,N/A,,Overcast,0,2012-12-09 08:14:00
3:32 AM,69.8,69.8,100,30.02,1.2,Calm,Calm,-,N/A,,Mostly Cloudy,0,2012-12-09 08:32:00
3:43 AM,69.8,69.8,100,30.02,3.0,Calm,Calm,-,N/A,,Mostly Cloudy,0,2012-12-09 08:43:00
3:50 AM,68.0,68.0,100,30.02,2.0,Calm,Calm,-,N/A,,Mostly Cloudy,0,2012-12-09 08:50:00
3:53 AM,69.1,68.0,96,30.02,1.8,Calm,Calm,-,N/A,,Mostly Cloudy,0,2012-12-09 08:53:00
4:00 AM,69.8,69.8,100,30.02,2.5,Calm,Calm,-,N/A,,Mostly Cloudy,0,2012-12-09 09:00:00
4:13 AM,69.8,69.8,100,30.02,3.0,Calm,Calm,-,N/A,,Mostly Cloudy,0,2012-12-09 09:13:00
4:22 AM,69.8,69.8,100,30.02,4.0,Calm,Calm,-,N/A,,Scattered Clouds,0,2012-12-09 09:22:00
4:42 AM,69.8,69.8,100,30.02,1.5,Calm,Calm,-,N/A,,Mostly Cloudy,0,2012-12-09 09:42:00
4:53 AM,69.1,69.1,100,30.02,1.5,Calm,Calm,-,N/A,,Mostly Cloudy,0,2012-12-09 09:53:00
4:58 AM,69.8,69.8,100,30.02,0.8,Calm,Calm,-,N/A,,Mostly Cloudy,0,2012-12-09 09:58:00
5:10 AM,69.8,69.8,100,30.02,0.5,Calm,Calm,-,N/A,Fog,Fog,0,2012-12-09 10:10:00
5:53 AM,68.0,68.0,100,30.03,0.8,Calm,Calm,-,N/A,,Mist,0,2012-12-09 10:53:00
6:53 AM,68.0,68.0,100,30.05,0.5,Calm,Calm,-,N/A,Fog,Fog,0,2012-12-09 11:53:00
7:21 AM,69.8,69.8,100,30.06,10.0,Calm,Calm,-,N/A,,Clear,0,2012-12-09 12:21:00
7:53 AM,70.0,69.1,97,30.07,10.0,Calm,Calm,-,N/A,,Clear,0,2012-12-09 12:53:00
8:53 AM,75.0,73.9,96,30.08,10.0,Calm,Calm,-,N/A,,Clear,0,2012-12-09 13:53:00
9:53 AM,80.1,73.9,81,30.09,10.0,SE,4.6,-,N/A,,Scattered Clouds,130,2012-12-09 14:53:00
10:53 AM,81.0,73.0,77,30.08,10.0,Calm,Calm,-,N/A,,Mostly Cloudy,0,2012-12-09 15:53:00
11:31 AM,80.6,73.4,79,30.08,10.0,SE,6.9,-,N/A,,Overcast,130,2012-12-09 16:31:00
11:53 AM,82.0,73.0,74,30.06,10.0,South,4.6,-,N/A,,Overcast,170,2012-12-09 16:53:00
12:22 PM,82.4,73.4,74,30.05,10.0,SSE,6.9,-,N/A,,Scattered Clouds,160,2012-12-09 17:22:00
12:53 PM,84.0,72.0,67,30.03,10.0,ESE,5.8,-,N/A,,Partly Cloudy,120,2012-12-09 17:53:00
1:24 PM,84.2,71.6,66,30.02,10.0,SSE,6.9,-,N/A,,Mostly Cloudy,160,2012-12-09 18:24:00
1:43 PM,84.2,73.4,70,30.01,10.0,SE,9.2,-,N/A,,Scattered Clouds,130,2012-12-09 18:43:00
1:53 PM,82.4,71.6,70,30.01,10.0,SSE,6.9,-,N/A,,Partly Cloudy,160,2012-12-09 18:53:00
2:53 PM,84.0,72.0,67,30.00,10.0,ESE,8.1,-,N/A,,Partly Cloudy,120,2012-12-09 19:53:00
3:08 PM,84.2,73.4,70,30.00,10.0,SSE,8.1,-,N/A,,Mostly Cloudy,160,2012-12-09 20:08:00
3:43 PM,82.4,73.4,74,30.00,10.0,ESE,10.4,-,N/A,,Scattered Clouds,120,2012-12-09 20:43:00
3:53 PM,82.9,72.0,69,30.00,10.0,SE,8.1,-,N/A,,Partly Cloudy,130,2012-12-09 20:53:00
4:53 PM,80.1,72.0,76,30.01,10.0,SE,9.2,-,N/A,,Clear,130,2012-12-09 21:53:00
5:53 PM,78.1,73.0,84,30.02,10.0,SE,4.6,-,N/A,,Clear,140,2012-12-09 22:53:00
6:53 PM,75.0,73.0,94,30.04,10.0,ESE,3.5,-,N/A,,Clear,120,2012-12-09 23:53:00
7:53 PM,75.0,73.0,94,30.04,10.0,Calm,Calm,-,N/A,,Clear,0,2012-12-10 00:53:00
8:53 PM,73.9,73.0,97,30.04,10.0,Calm,Calm,-,N/A,,Clear,0,2012-12-10 01:53:00
9:53 PM,73.9,73.0,97,30.05,10.0,Calm,Calm,-,N/A,,Clear,0,2012-12-10 02:53:00
10:44 PM,71.6,71.6,100,30.05,1.8,Calm,Calm,-,N/A,,Clear,0,2012-12-10 03:44:00
10:53 PM,72.0,72.0,100,30.05,1.8,Calm,Calm,-,N/A,,Clear,0,2012-12-10 03:53:00
11:01 PM,71.6,69.8,94,30.05,0.8,Calm,Calm,-,N/A,,Mist,0,2012-12-10 04:01:00
11:12 PM,69.8,69.8,100,30.05,0.2,Calm,Calm,-,N/A,Fog,Fog,0,2012-12-10 04:12:00
11:21 PM,71.6,69.8,94,30.05,1.0,Calm,Calm,-,N/A,,Mist,0,2012-12-10 04:21:00
11:24 PM,71.6,71.6,100,30.05,3.0,Calm,Calm,-,N/A,,Mostly Cloudy,0,2012-12-10 04:24:00
11:29 PM,69.8,69.8,100,30.04,1.8,Calm,Calm,-,N/A,,Mostly Cloudy,0,2012-12-10 04:29:00
11:44 PM,71.6,71.6,100,30.04,0.8,Calm,Calm,-,N/A,,Mist,0,2012-12-10 04:44:00
11:53 PM,72.0,71.1,97,30.04,0.5,Calm,Calm,-,N/A,Fog,Fog,0,2012-12-10 04:53:00